Stations météo

réclame
Mon MeteoGroup
Chieming, Allemagne (10982): Température de l'air & dewpoint: 17.02.2018 07:00:00 - 23.02.2018 07:00:00 (CET)Chieming, Allemagne (10982): Température de l'air 5cm & Température de l'air -5cm: 17.02.2018 07:00:00 - 23.02.2018 07:00:00 (CET)Chieming, Allemagne (10982): Température de l'air -20cm & Température de l'air -100cm: 17.02.2018 07:00:00 - 23.02.2018 07:00:00 (CET)Chieming, Allemagne (10982): Vitesse du vent & gusts: 17.02.2018 07:00:00 - 23.02.2018 07:00:00 (CET)Chieming, Allemagne (10982): Direction du vent: 17.02.2018 07:00:00 - 23.02.2018 07:00:00 (CET)Chieming, Allemagne (10982): reduced air pressure: 17.02.2018 07:00:00 - 23.02.2018 07:00:00 (CET)Chieming, Allemagne (10982): visibility: 17.02.2018 07:00:00 - 23.02.2018 07:00:00 (CET)Chieming, Allemagne (10982): Ensoleillement: 17.02.2018 07:00:00 - 23.02.2018 07:00:00 (CET)Chieming, Allemagne (10982): Quantités de précipitations: 17.02.2018 07:00:00 - 23.02.2018 07:00:00 (CET)
Date & Time tt [°C] td [°C] tt 5cm [°C] tt -5cm [°C] tt -20cm [°C] tt -100cm [°C] ff [km/h] ff [knt] fx [km/h] fx [knt] dd ppp [hPa] vv [km] sd [min] rr [mm]
23.02.2018 07:00:00 -4,7 -6,2 -3,1 0,0 0,8 3,0 21 11 28 15 ENE 1016,6 4,2 0 0,0
23.02.2018 06:00:00 -4,5 -6,1 -3,2 0,0 0,8 3,0 18 10 24 13 ENE 1016,4 4,2 0 0,0
23.02.2018 05:00:00 -4,3 -5,8 -3,2 0,0 0,8 3,0 19 10 29 15 ENE 1016,6 4,2 0 0,0
23.02.2018 04:00:00 -4,2 -5,9 -3,2 0,0 0,8 3,0 18 10 25 14 ENE 1016,6 4,2 0 0,0
23.02.2018 03:00:00 -4,1 -5,9 -3,4 0,0 0,8 3,0 16 9 26 14 ENE 1016,8 4,7 0 0,0
23.02.2018 02:00:00 -4,1 -6,1 -3,5 0,0 0,8 3,0 16 9 28 15 ENE 1017,1 5 0 0,0
23.02.2018 01:00:00 -3,9 -6,0 -3,2 0,0 0,8 3,0 18 10 31 17 ENE 1017,3 5 0 0,0
23.02.2018 00:00:00 -3,6 -6,2 -3,1 0,0 0,8 3,0 21 12 31 17 ENE 1017,2 6 0 0,0
22.02.2018 23:00:00 -3,3 -6,4 -3,2 0,0 0,8 3,0 21 12 31 17 ENE 1017,3 7 0 0,0
22.02.2018 22:00:00 -3,4 -6,1 -3,2 0,0 0,8 3,0 19 11 30 16 ENE 1017,2 7 0 0,0
22.02.2018 21:00:00 -3,3 -6,0 -3,1 0,0 0,8 3,0 22 12 35 19 ENE 1017,3 6 0 0,0
22.02.2018 20:00:00 -3,3 -6,0 -3,1 0,0 0,8 3,0 23 13 39 21 ENE 1017,3 7 0 0,0
22.02.2018 19:00:00 -3,3 -5,8 -3,3 0,0 0,8 3,0 21 11 37 20 E 1017,4 6 0 0,0
22.02.2018 18:00:00 -3,5 -5,7 -3,2 0,0 0,8 3,0 24 13 45 24 ENE 1017,1 3,8 0 0,0
22.02.2018 17:00:00 -3,3 -6,2 -2,7 0,0 0,8 3,0 31 17 49 26 ENE 1016,9 7 0 0,0
22.02.2018 16:00:00 -3,3 -6,0 -2,3 0,0 0,8 3,0 31 17 45 25 ENE 1016,7 6 0 0,0
22.02.2018 15:00:00 -3,4 -5,6 -1,3 0,0 0,8 3,0 31 17 44 24 ENE 1016,8 3,1 0 0,0
22.02.2018 14:00:00 -3,1 -5,5 -0,4 0,0 0,8 3,0 27 14 45 24 ENE 1016,7 3,4 0 0,0
22.02.2018 13:00:00 -3,1 -5,4 -0,9 0,0 0,8 3,0 26 14 44 24 ENE 1016,9 2,7 0 0,0
22.02.2018 12:00:00 -3,3 -6,0 -1,1 0,0 0,8 3,0 32 18 47 25 ENE 1017,1 3,5 0 0,0
22.02.2018 11:00:00 -3,4 -6,5 -1,9 0,0 0,8 3,0 30 16 45 25 ENE 1017,1 7 0 0,0
22.02.2018 10:00:00 -3,2 -6,3 -1,6 0,0 0,8 3,0 35 19 47 26 ENE 1016,9 6 0 0,0
22.02.2018 09:00:00 -3,5 -6,4 -3,0 0,0 0,8 3,0 34 18 51 28 ENE 1017,0 6 0 0,0
22.02.2018 08:00:00 -3,6 -6,4 -3,6 0,0 0,8 3,0 31 17 42 23 ENE 1017,2 5 0 0,0
22.02.2018 07:00:00 -3,7 -6,3 -4,3 0,0 0,8 3,0 28 15 42 23 ENE 1017,0 6 0 0,0
22.02.2018 06:00:00 -3,7 -6,0 -4,2 0,0 0,8 3,0 26 14 37 20 ENE 1017,1 3,6 0 0,0
22.02.2018 05:00:00 -3,7 -5,7 -4,2 0,0 0,8 3,0 26 14 34 18 ENE 1017,2 3,0 0 0,0
22.02.2018 04:00:00 -3,4 -5,8 -3,8 0,0 0,8 3,0 24 13 46 25 ENE 1017,6 2,5 0 0,0
22.02.2018 03:00:00 -2,6 -4,5 -3,0 0,0 0,8 3,0 19 10 35 19 ENE 1017,9 3,5 0 0,0
22.02.2018 02:00:00 -2,5 -4,8 -3,0 0,0 0,8 3,0 24 13 33 18 ENE 1018,1 4,0 0 0,0
22.02.2018 01:00:00 -2,6 -4,4 -3,1 0,0 0,8 3,0 16 9 24 13 ENE 1018,6 3,9 0 0,0
22.02.2018 00:00:00 -3,0 -4,7 -4,3 0,0 0,8 3,0 16 9 25 13 ENE 1018,9 3,2 0 0,0
21.02.2018 23:00:00 -2,9 -4,7 -4,8 0,0 0,8 3,0 13 7 19 10 E 1019,3 3,6 0 0,0
21.02.2018 22:00:00 -2,4 -3,9 -3,5 0,0 0,8 3,0 11 6 17 9 ENE 1019,7 3,7 0 0,0
21.02.2018 21:00:00 -2,2 -3,5 -3,0 0,0 0,8 3,0 14 7 17 9 ENE 1019,9 2,7 0 0,0
21.02.2018 20:00:00 -2,1 -2,8 -2,6 0,0 0,8 3,0 9 5 18 10 ENE 1020,0 2,0 0 0,0
21.02.2018 19:00:00 -1,8 -3,0 -2,2 0,0 0,8 3,0 11 6 13 7 ENE 1019,9 1,7 0 0,0
21.02.2018 18:00:00 -1,4 -3,3 -2,1 0,0 0,8 3,0 8 4 10 6 E 1019,5 4,3 0 0,0
21.02.2018 17:00:00 -1,2 -3,5 -1,7 0,0 0,8 3,0 6 3 13 7 ENE 1019,2 4,0 0 0,0
21.02.2018 16:00:00 -0,6 -4,5 -1,0 0,0 0,8 3,0 9 5 14 8 NE 1018,8 7 0 0,0
21.02.2018 15:00:00 -0,6 -4,1 -0,6 0,0 0,8 3,0 6 3 13 7 E 1018,9 6 0 0,0
21.02.2018 14:00:00 -0,7 -4,5 -0,6 0,0 0,8 3,1 11 6 17 9 E 1019,0 8 7 0,0
21.02.2018 13:00:00 -1,4 -4,7 -2,2 0,0 0,8 3,1 14 8 18 10 E 1019,5 6 21 0,0
21.02.2018 12:00:00 -1,6 -4,5 -2,0 0,0 0,8 3,1 14 7 17 9 E 1019,6 5 21 0,0
21.02.2018 11:00:00 -1,8 -4,0 -1,1 0,0 0,8 3,1 11 6 16 8 ENE 1020,1 3,9 2 0,0
21.02.2018 10:00:00 -2,1 -3,7 -1,8 0,0 0,8 3,1 10 5 13 7 NE 1020,2 2,0 0 0,1
21.02.2018 09:00:00 -2,5 -3,6 -2,6 0,0 0,8 3,1 10 5 15 8 E 1020,2 2,0 0 0,0
21.02.2018 08:00:00 -2,6 -3,3 -3,1 0,0 0,8 3,1 5 3 10 5 NE 1019,8 2,4 0 0,1
21.02.2018 07:00:00 -2,5 -2,9 -2,8 0,0 0,8 3,1 6 4 9 5 NNE 1019,6 1,1 0 0,1
21.02.2018 06:00:00 -2,4 -2,8 -2,6 0,0 0,8 3,1 6 3 11 6 NE 1019,1 1,3 0 0,1
21.02.2018 05:00:00 -2,3 -2,6 -2,4 0,0 0,8 3,1 7 4 11 6 NNE 1018,7 1,2 0 0,0
21.02.2018 04:00:00 -2,3 -2,8 -2,4 0,0 0,8 3,1 4 2 6 3 NNW 1018,6 1,6 0 0,0
21.02.2018 03:00:00 -2,3 -2,8 -2,5 0,0 0,8 3,1 4 2 5 3 NNE 1018,6 1,6 0 0,0
21.02.2018 02:00:00 -2,4 -3,0 -2,5 0,0 0,8 3,1 3 2 4 2 N 1018,6 1,9 0 0,0
21.02.2018 01:00:00 -2,4 -3,0 -2,4 0,0 0,8 3,1 0 0 5 3 N 1018,4 2,0 0 0,0
21.02.2018 00:00:00 -2,5 -3,1 -2,7 0,0 0,8 3,1 3 2 5 3 NNE 1018,5 2,0 0 0,1
20.02.2018 23:00:00 -2,6 -3,1 -2,9 0,0 0,8 3,1 4 2 9 5 NNE 1018,4 1,5 0 0,1
20.02.2018 22:00:00 -2,5 -3,3 -2,9 0,0 0,8 3,1 8 4 11 6 NE 1018,4 2,2 0 0,0
20.02.2018 21:00:00 -2,5 -2,9 -3,5 0,0 0,8 3,1 6 3 8 4 NE 1017,9 1,8 0 0,1
20.02.2018 20:00:00 -2,0 -2,8 -2,7 0,0 0,8 3,1 7 4 11 6 NNE 1017,4 2,5 0 0,0
20.02.2018 19:00:00 -1,8 -2,9 -1,9 0,0 0,8 3,1 9 5 12 6 N 1017,1 3,6 0 0,0
20.02.2018 18:00:00 -1,6 -2,9 -2,0 0,0 0,8 3,1 9 5 11 6 N 1016,7 4,2 0 0,0
20.02.2018 17:00:00 -1,4 -3,5 -1,6 0,0 0,8 3,1 9 5 17 9 N 1016,4 6 0 0,0
20.02.2018 16:00:00 -1,3 -3,8 -1,3 0,0 0,8 3,1 11 6 16 8 N 1015,7 7 0 0,0
20.02.2018 15:00:00 -1,1 -3,2 -0,8 -0,1 0,8 3,1 10 6 14 7 N 1015,8 6 0 0,0
20.02.2018 14:00:00 -1,0 -3,6 -0,1 -0,1 0,8 3,1 8 4 15 8 NE 1015,8 4,2 1 0,0
20.02.2018 13:00:00 -1,4 -3,9 -1,0 -0,1 0,8 3,1 13 7 18 10 NNE 1016,1 4,8 0 0,0
20.02.2018 12:00:00 -1,6 -3,9 -0,8 -0,1 0,8 3,1 13 7 17 9 NE 1016,3 5 11 0,0
20.02.2018 11:00:00 -1,6 -4,0 0,4 -0,1 0,8 3,1 9 5 13 7 ENE 1016,3 5 0 0,0
20.02.2018 10:00:00 -2,0 -3,7 -0,6 -0,1 0,8 3,1 11 6 15 8 E 1016,4 2,9 0 0,0
20.02.2018 09:00:00 -2,3 -3,3 -1,9 -0,1 0,8 3,1 7 4 10 6 ENE 1016,7 1,5 0 0,2
20.02.2018 08:00:00 -2,8 -3,2 -3,0 -0,1 0,8 3,1 6 4 10 5 NE 1016,8 1,4 0 0,2
20.02.2018 07:00:00 -2,8 -3,3 -3,0 -0,1 0,8 3,1 6 4 8 4 NE 1016,6 1,3 0 0,2
20.02.2018 06:00:00 -2,7 -3,3 -3,0 -0,1 0,8 3,1 6 3 11 6 NE 1016,5 1,9 0 0,0
20.02.2018 05:00:00 -2,5 -3,3 -2,8 -0,1 0,8 3,1 9 5 17 9 ENE 1016,4 3,0 0 0,0
20.02.2018 04:00:00 -2,3 -3,3 -2,7 -0,1 0,8 3,1 8 4 13 7 NE 1016,3 4,3 0 0,0
20.02.2018 03:00:00 -2,2 -3,3 -2,6 -0,1 0,8 3,1 6 3 9 5 E 1016,6 4,9 0 0,0
20.02.2018 02:00:00 -2,1 -3,1 -2,5 -0,1 0,8 3,1 6 3 8 5 ENE 1016,9 5 0 0,0
20.02.2018 01:00:00 -2,1 -3,1 -2,5 -0,1 0,8 3,1 5 3 12 6 E 1017,4 4,6 0 0,0
20.02.2018 00:00:00 -2,2 -3,3 -2,4 0,0 0,8 3,1 8 5 13 7 SE 1017,8 5 0 0,0
19.02.2018 23:00:00 -2,3 -3,5 -2,5 0,0 0,8 3,1 11 6 15 8 SSE 1017,9 6 0 0,0
19.02.2018 22:00:00 -2,6 -3,4 -2,6 0,0 0,8 3,1 7 4 12 6 E 1018,5 3,7 0 0,0
19.02.2018 21:00:00 -2,5 -3,4 -2,7 0,0 0,8 3,1 10 5 13 7 E 1018,9 4,6 0 0,0
19.02.2018 20:00:00 -2,5 -3,5 -2,7 0,0 0,8 3,1 6 4 11 6 ENE 1019,1 5 0 0,0
19.02.2018 19:00:00 -2,6 -3,9 -2,7 0,0 0,8 3,1 9 5 12 6 ENE 1019,4 6 0 0,0
19.02.2018 18:00:00 -2,4 -3,4 -2,7 0,0 0,8 3,1 6 4 13 7 NE 1019,4 6 0 0,0
19.02.2018 17:00:00 -2,3 -3,8 -2,5 0,0 0,8 3,1 8 4 13 7 NNE 1019,5 7 0 0,0
19.02.2018 16:00:00 -2,3 -3,9 -2,2 0,0 0,8 3,1 9 5 14 8 NNW 1019,7 6 0 0,0
19.02.2018 15:00:00 -2,1 -4,0 -1,9 0,0 0,8 3,1 6 3 10 5 ENE 1019,9 8 0 0,0
19.02.2018 14:00:00 -2,2 -4,0 -1,9 0,0 0,8 3,1 7 4 13 7 NE 1020,3 8 0 0,0
19.02.2018 13:00:00 -2,4 -4,0 -2,0 0,0 0,9 3,1 9 5 12 7 NNE 1020,9 7 0 0,0
19.02.2018 12:00:00 -2,4 -4,1 -1,9 0,0 0,9 3,1 8 4 11 6 ENE 1021,2 8 0 0,0
19.02.2018 11:00:00 -2,7 -4,2 -2,2 0,0 0,9 3,1 9 5 12 6 N 1021,6 8 0 0,0
19.02.2018 10:00:00 -2,3 -4,4 -1,8 0,0 0,9 3,1 4 2 11 6 S 1021,6 12 0 0,0
19.02.2018 09:00:00 -2,8 -4,5 -2,6 0,0 0,9 3,1 6 3 9 5 S 1022,0 10 0 0,0
19.02.2018 08:00:00 -3,0 -4,5 -3,2 -0,1 0,9 3,1 5 3 9 5 E 1022,4 8 0 0,0
19.02.2018 07:00:00 -3,3 -4,3 -3,4 0,0 0,9 3,1 6 3 13 7 ESE 1022,4 8 0 0,0
19.02.2018 06:00:00 -3,3 -4,5 -3,6 0,0 0,9 3,1 9 5 14 8 E 1022,8 9 0 0,0
19.02.2018 05:00:00 -3,2 -4,5 -3,6 0,0 1,0 3,1 9 5 15 8 NE 1023,1 11 0 0,0
19.02.2018 04:00:00 -3,1 -4,2 -3,6 0,0 1,0 3,1 8 4 18 10 E 1023,1 8 0 0,0
19.02.2018 03:00:00 -2,9 -4,0 -4,0 0,0 1,0 3,1 14 7 20 11 ENE 1023,5 8 0 0,0
19.02.2018 02:00:00 -3,0 -3,9 -4,0 0,1 1,0 3,1 11 6 16 9 NE 1024,3 6 0 0,0
19.02.2018 01:00:00 -3,6 -4,2 -5,9 0,1 1,0 3,1 6 3 14 8 ENE 1024,8 5 0 0,0
19.02.2018 00:00:00 -3,4 -4,2 -5,8 0,1 1,1 3,1 11 6 19 10 ENE 1025,4 5 0 0,0
18.02.2018 23:00:00 -3,7 -4,3 -5,8 0,2 1,1 3,1 15 8 18 10 ENE 1025,9 4,5 0 0,0
18.02.2018 22:00:00 -2,5 -3,3 -4,4 0,2 1,1 3,1 16 8 19 10 E 1026,3 5 0 0,0
18.02.2018 21:00:00 -2,5 -3,4 -5,1 0,2 1,2 3,1 9 5 13 7 ENE 1026,8 6 0 0,0
18.02.2018 20:00:00 -2,3 -3,1 -4,7 0,3 1,2 3,1 11 6 19 10 E 1027,0 6 0 0,0
18.02.2018 19:00:00 -1,0 -2,2 -2,6 0,4 1,2 3,1 14 7 22 12 E 1027,2 8 0 0,0
18.02.2018 18:00:00 -0,2 -1,5 -0,8 0,6 1,2 3,1 16 9 23 13 ENE 1027,3 8 0 0,0
18.02.2018 17:00:00 0,3 -1,1 -0,5 0,9 1,2 3,1 16 9 23 13 ENE 1027,1 8 30 0,0
18.02.2018 16:00:00 0,5 -1,5 0,3 0,8 1,2 3,1 14 7 23 13 ENE 1027,1 9 7 0,0
18.02.2018 15:00:00 0,6 -1,7 1,0 0,6 1,1 3,1 13 7 21 11 ENE 1026,9 9 2 0,0
18.02.2018 14:00:00 0,3 -2,4 0,5 0,5 1,1 3,1 14 7 21 11 E 1027,2 13 7 0,0
18.02.2018 13:00:00 0,3 -2,5 0,9 0,4 1,1 3,1 11 6 16 9 ENE 1027,6 15 24 0,0
18.02.2018 12:00:00 -0,6 -2,3 0,0 0,4 1,1 3,1 12 7 16 9 NE 1028,2 0,4 0 0,0
18.02.2018 11:00:00 -0,4 -1,9 -0,2 0,5 1,1 3,1 8 4 13 7 ENE 1027,9 7 0 0,0
18.02.2018 10:00:00 -0,7 -2,0 -0,6 0,4 1,1 3,1 9 5 12 6 E 1027,7 8 0 0,0
18.02.2018 09:00:00 -0,9 -1,7 -1,2 0,4 1,1 3,1 7 4 10 5 E 1027,7 6 0 0,0
18.02.2018 08:00:00 -1,1 -1,3 -1,4 0,4 1,2 3,1 5 3 7 4 E 1027,5 3,1 0 0,1
18.02.2018 07:00:00 -1,1 -1,1 -1,4 0,4 1,2 3,1 6 3 6 4 ENE 1027,0 1,6 0 0,5
18.02.2018 06:00:00 -1,1 -1,1 -1,3 0,4 1,2 3,1 3 2 4 2 ENE 1026,7 0,9 0 0,5
18.02.2018 05:00:00 -1,0 -1,0 -1,3 0,4 1,2 3,1 3 2 4 2 ENE 1026,2 1,4 0 0,3
18.02.2018 04:00:00 -0,9 -1,2 -1,3 0,4 1,2 3,1 3 2 6 4 N 1025,9 3,4 0 0,0
18.02.2018 03:00:00 -0,8 -0,8 -1,2 0,4 1,2 3,1 4 2 5 3 N 1025,4 2,1 0 0,3
18.02.2018 02:00:00 -0,7 -0,8 -1,1 0,4 1,2 3,1 5 3 7 4 N 1024,8 2,6 0 0,4
18.02.2018 01:00:00 -0,6 -0,6 -0,9 0,4 1,3 3,1 4 2 6 4 N 1024,0 1,7 0 0,5
18.02.2018 00:00:00 -0,4 -0,4 -0,6 0,5 1,3 3,1 7 4 10 5 N 1023,3 0,8 0 0,1
17.02.2018 23:00:00 -0,2 -0,2 -0,2 0,5 1,3 3,1 4 2 7 4 NNE 1022,3 3,4 0 0,1
17.02.2018 22:00:00 -0,1 -0,2 -0,1 0,5 1,4 3,1 5 3 7 4 N 1021,5 2,3 0 0,1
17.02.2018 21:00:00 0,1 0,1 0,0 0,5 1,4 3,1 3 1 6 3 NNW 1020,8 2,9 0 0,2
17.02.2018 20:00:00 0,1 0,1 0,0 0,5 1,5 3,1 4 2 10 5 NE 1020,1 2,5 0 0,3
17.02.2018 19:00:00 0,2 0,2 0,0 0,6 1,5 3,1 7 4 13 7 NE 1019,1 2,5 0 0,4
17.02.2018 18:00:00 0,3 0,3 0,0 0,7 1,6 3,1 7 4 10 6 NE 1018,1 2,7 0 0,7
17.02.2018 17:00:00 0,3 0,3 0,0 1,1 1,7 3,1 4 2 7 4 NNE 1018,1 1,1 0 0,8
17.02.2018 16:00:00 0,5 0,4 0,0 1,7 1,6 3,1 5 3 18 10 NE 1018,2 1,4 0 0,3
17.02.2018 15:00:00 1,2 1,0 1,5 2,0 1,5 3,1 11 6 21 11 NE 1017,6 4,6 0 0,0
17.02.2018 14:00:00 1,1 1,1 1,4 2,0 1,4 3,1 15 8 22 12 E 1017,2 3,6 0 0,0
17.02.2018 13:00:00 1,2 1,1 1,7 2,1 1,3 3,1 13 7 20 11 NE 1018,3 3,8 0 0,0
17.02.2018 12:00:00 1,1 1,1 1,5 1,8 1,1 3,1 14 8 23 12 NE 1018,4 3,5 0 0,0
17.02.2018 11:00:00 0,9 0,9 1,7 1,5 1,0 3,1 14 8 24 13 ENE 1018,4 2,2 0 0,0
17.02.2018 10:00:00 0,7 0,7 1,2 1,0 1,0 3,1 17 9 24 13 ENE 1019,6 3,2 0 0,0
17.02.2018 09:00:00 0,4 0,4 0,7 0,6 0,9 3,1 16 9 25 14 ENE 1020,8 0,8 0 0,0
17.02.2018 08:00:00 0,3 0,3 0,3 0,3 0,9 3,1 14 8 26 14 ENE 1022,2 0,3 0 0,0
17.02.2018 07:00:00 0,2 0,2 0,1 0,3 0,9 3,1 14 7 24 13 ENE 1022,7 0,3 0 0,0

tt = Température de l'air
td = dewpoint
tt 5cm = Température de l'air 5cm
tt -5cm = Température de l'air -5cm
tt -20cm = Température de l'air -20cm
tt -100cm = Température de l'air -100cm
ff = Vitesse du vent
fx = gusts
dd = Direction du vent
ppp = reduced air pressure
vv = visibility
sd = Ensoleillement
rr = Quantités de précipitations

stations d'obs. à proximité